Tracking 19176 objects as of 27-May-2018
HD Live streaming from Space Station
objects crossing your sky now

METEOR 2-13 DEB

Track METEOR 2-13 DEB now!
10-day predictions


NORAD ID: 43151
Int'l Code: 2018-004AL
Perigee: 937.8 km
Apogee: 963.4 km
Inclination: 82.5 °
Period: 103.9 minutes
Semi major axis: 7321 km
RCS: Unknown
Launch date: January 12, 2018
Source: Commonwealth of Independent States (former USSR) (CIS)
Launch site: SRIHARIKOTA (SRI)

Note: This is SATELLITE DEBRIS
aabbcc
Your satellite tracking list
Your tracking list is empty




NASA's NSSDC Master Catalog

Two Line Element Set (TLE):
1 43151U 85119C   18146.55072839  .00000965  00000-0  82845-3 0  9997
2 43151  82.5383  80.3441 0017494 110.0287 250.2759 13.85781524 18552
Source of the keplerian elements: AFSPC